METEOR 2-20 DEB

Satellite information

Favourite Embed

Satellite Type and Status

DEBRISIN ORBIT

Key statistics

Satellite METEOR 2-20 DEB at a glance.

Uptime

12806

Days in orbit

Revolutions

≈ 13.9

Per day

Orbit

LEO

Low Earth Orbit

Inclination

82.5

Latest

Satellite identification and parameters

Extended collection of information and parameters for METEOR 2-20 DEB.

Object identification

Identified? True

Debris? True

Object name: METEOR 2-20 DEB

International designator: 1990-086H

Object number (NORAD): 59998

Object ID (CCSDS): 59998

Country: COMMONWEALTH OF INDEPENDENT STATES (CIS)

Current information (Y/N): Y

RCS size: SMALL

Orbital parameters

Period: 103.692 minutes

Inclination: 82.533 deg

SMA: 7311.207 km

Apoapsis: 943.504 km

Periapsis: 922.64 km

RAAN: 28.5333 deg

Eccentricy: 0.00142691

Argument of periapsis: 342.1744 deg

Mean anomaly: 17.8916 deg

Mean motion: 13.88734232 rev/day

Mean motion (dot): 0.00002232 rev/day2

B* drag term: 0.0018380791 1/REarth

Two-line elements (TLE)

Creation date: Oct. 18, 2025, 10:30 a.m.

Reference frame: TEME

Reference center: EARTH

Epoch: Oct. 18, 2025, 5:09 a.m. UTC

TLE line 0: 0 METEOR 2-20 DEB

TLE line 1: 1 59998U 90086H 25291.21521718 .00002232 00000-0 18381-2 0 9991

TLE line 2: 2 59998 82.5330 28.5333 0014269 342.1744 17.8916 13.88734232 83873

Live tracking on map

Real-time ground track for satellite METEOR 2-20 DEB.

In-orbit conjunctions

A list of the most updated potential collisions computed for object METEOR 2-20 DEB.

Target Orbit TCA Probability of collision Miss distance Type
SL-8 R/B LEO 2025-02-26 01:26:58 0.0001508942 660.0 (m) ROCKET BODY
COSMOS 1771 LEO 2024-10-15 19:12:45 0.0004686829 516.0 (m) PAYLOAD

Associated space launch

Second generation soviet meteorological satellite

METEOR 2-20 DEB was lifted into orbit during the mission ‘Tsiklon-3 | Meteor-2 20’, on board a Tsiklon-3 space rocket.

The launch took place on Sept. 28, 1990, 7:30 a.m. from 32/1.

For more information about the launch, click the button.

Launch to space Tsiklon-3 | Meteor-2 20
Tsiklon-3 | Meteor-2 20

Agency: N/A

Status: Launch Successful

Launch date: Sept. 28, 1990, 7:30 a.m. UTC

Rocket: Tsiklon-3

Launch pad: 32/1

Location: Plesetsk Cosmodrome, Russian Federation

...

Latest news about this satellite

There are no fresh news available about this satellite. Check back as we update our databases every day.


Newsletter sign-up

Weekly statistics, charts and insights to help you stay on top of the space industry.